Time,TemperatureF,DewpointF,PressureIn,WindDirection,WindDirectionDegrees,WindSpeedMPH,WindSpeedGustMPH,Humidity,HourlyPrecipIn,Conditions,Clouds,dailyrainin,SoftwareType,DateUTC
2013-01-06 15:12:00,32.0,25.0,30.22,WNW,302,8.0,16.0,75,0.00,,,0.02,,2013-01-06 21:12:00,
2013-01-06 15:22:00,32.0,25.0,30.22,West,279,10.0,15.0,75,0.00,,,0.02,,2013-01-06 21:22:00,
2013-01-06 15:33:00,31.0,24.0,30.22,WNW,286,10.0,13.0,76,0.00,,,0.00,,2013-01-06 21:33:00,
2013-01-06 15:42:00,31.0,24.0,30.22,WNW,286,10.0,13.0,76,0.00,,,0.00,,2013-01-06 21:42:00,
2013-01-06 15:53:00,31.0,25.0,30.23,WNW,284,7.0,13.0,77,0.00,,,0.00,,2013-01-06 21:53:00,
2013-01-06 16:02:00,31.0,25.0,30.24,WNW,289,7.0,10.0,78,0.00,,,0.00,,2013-01-06 22:02:00,
2013-01-06 16:12:00,31.0,25.0,30.24,WNW,289,7.0,10.0,78,0.00,,,0.00,,2013-01-06 22:12:00,
2013-01-06 16:22:00,30.0,25.0,30.25,WNW,283,8.0,12.0,80,0.00,,,0.00,,2013-01-06 22:22:00,
2013-01-06 16:33:00,29.0,24.0,30.26,WNW,302,7.0,13.0,82,0.00,,,0.00,,2013-01-06 22:33:00,
2013-01-06 16:43:00,29.0,24.0,30.26,WNW,302,7.0,13.0,82,0.00,,,0.00,,2013-01-06 22:43:00,
2013-01-06 16:53:00,28.0,24.0,30.26,West,277,5.0,9.0,83,0.00,,,0.00,,2013-01-06 22:53:00,
2013-01-06 17:02:00,27.0,23.0,30.27,West,279,4.0,9.0,84,0.00,,,0.00,,2013-01-06 23:02:00,
2013-01-06 17:12:00,27.0,23.0,30.27,West,279,4.0,9.0,84,0.00,,,0.00,,2013-01-06 23:12:00,
2013-01-06 17:22:00,27.0,23.0,30.27,WNW,288,4.0,8.0,85,0.00,,,0.00,,2013-01-06 23:22:00,
2013-01-06 17:33:00,27.0,23.0,30.27,WNW,288,4.0,8.0,85,0.00,,,0.00,,2013-01-06 23:33:00,
2013-01-06 17:42:00,27.0,23.0,30.27,WNW,288,4.0,8.0,85,0.00,,,0.00,,2013-01-06 23:42:00,
2013-01-06 17:53:00,25.0,22.0,30.29,WNW,282,5.0,7.0,88,0.00,,,0.00,,2013-01-06 23:53:00,
2013-01-06 18:02:00,24.0,21.0,30.30,WNW,282,4.0,7.0,88,0.00,,,0.00,,2013-01-07 00:02:00,
2013-01-06 18:12:00,24.0,21.0,30.30,WNW,282,4.0,7.0,88,0.00,,,0.00,,2013-01-07 00:12:00,
2013-01-06 18:23:00,23.0,20.0,30.31,WNW,288,3.0,6.0,89,0.00,,,0.00,,2013-01-07 00:23:00,
2013-01-06 18:32:00,23.0,20.0,30.32,WNW,286,2.0,5.0,88,0.00,,,0.00,,2013-01-07 00:32:00,
2013-01-06 18:42:00,23.0,20.0,30.32,WNW,286,2.0,5.0,88,0.00,,,0.00,,2013-01-07 00:42:00,
2013-01-06 18:53:00,22.0,20.0,30.32,WNW,286,2.0,3.0,90,0.00,,,0.00,,2013-01-07 00:53:00,
2013-01-06 19:02:00,21.0,19.0,30.32,WNW,286,4.0,6.0,92,0.00,,,0.00,,2013-01-07 01:02:00,
2013-01-06 19:12:00,21.0,19.0,30.32,WNW,286,4.0,6.0,92,0.00,,,0.00,,2013-01-07 01:12:00,
2013-01-06 19:23:00,22.0,20.0,30.33,West,281,3.0,5.0,91,0.00,,,0.00,,2013-01-07 01:23:00,
2013-01-06 19:32:00,22.0,20.0,30.33,West,272,2.0,5.0,91,0.00,,,0.00,,2013-01-07 01:32:00,
2013-01-06 19:42:00,22.0,20.0,30.33,West,272,2.0,5.0,91,0.00,,,0.00,,2013-01-07 01:42:00,
2013-01-06 19:53:00,22.0,20.0,30.34,West,273,2.0,6.0,91,0.00,,,0.00,,2013-01-07 01:53:00,
2013-01-06 20:02:00,21.0,19.0,30.33,West,273,2.0,3.0,92,0.00,,,0.00,,2013-01-07 02:02:00,
2013-01-06 20:12:00,21.0,19.0,30.33,West,273,2.0,3.0,92,0.00,,,0.00,,2013-01-07 02:12:00,
2013-01-06 20:22:00,21.0,19.0,30.33,West,273,1.0,2.0,91,0.00,,,0.00,,2013-01-07 02:22:00,
2013-01-06 20:32:00,21.0,19.0,30.33,West,273,0.0,2.0,92,0.00,,,0.00,,2013-01-07 02:32:00,
2013-01-06 20:42:00,21.0,19.0,30.33,West,273,0.0,2.0,92,0.00,,,0.00,,2013-01-07 02:42:00,
2013-01-06 20:53:00,21.0,19.0,30.33,West,273,2.0,4.0,93,0.00,,,0.00,,2013-01-07 02:53:00,
2013-01-06 21:02:00,21.0,19.0,30.34,West,273,1.0,3.0,91,0.00,,,0.00,,2013-01-07 03:02:00,
2013-01-06 21:12:00,21.0,19.0,30.34,West,273,1.0,3.0,91,0.00,,,0.00,,2013-01-07 03:12:00,
2013-01-06 21:22:00,20.0,18.0,30.34,West,273,0.0,2.0,92,0.00,,,0.00,,2013-01-07 03:22:00,
2013-01-06 21:32:00,20.0,18.0,30.35,West,273,0.0,3.0,92,0.00,,,0.00,,2013-01-07 03:32:00,
2013-01-06 21:42:00,20.0,18.0,30.35,West,273,0.0,3.0,92,0.00,,,0.00,,2013-01-07 03:42:00,
2013-01-06 21:53:00,20.0,18.0,30.33,West,273,0.0,1.0,92,0.00,,,0.00,,2013-01-07 03:53:00,
2013-01-06 22:02:00,19.0,17.0,30.35,West,273,1.0,2.0,92,0.00,,,0.00,,2013-01-07 04:02:00,
2013-01-06 22:12:00,19.0,17.0,30.35,West,273,1.0,2.0,92,0.00,,,0.00,,2013-01-07 04:12:00,
2013-01-06 22:22:00,19.0,17.0,30.34,West,273,1.0,3.0,93,0.00,,,0.00,,2013-01-07 04:22:00,
2013-01-06 22:32:00,19.0,17.0,30.35,West,273,1.0,3.0,92,0.00,,,0.00,,2013-01-07 04:32:00,
2013-01-06 22:42:00,19.0,17.0,30.35,West,273,1.0,3.0,92,0.00,,,0.00,,2013-01-07 04:42:00,
2013-01-06 22:52:00,19.0,17.0,30.35,West,273,1.0,3.0,92,0.00,,,0.00,,2013-01-07 04:52:00,
2013-01-06 23:02:00,19.0,17.0,30.36,West,271,2.0,4.0,93,0.00,,,0.00,,2013-01-07 05:02:00,
2013-01-06 23:12:00,19.0,17.0,30.36,West,271,2.0,4.0,93,0.00,,,0.00,,2013-01-07 05:12:00,
2013-01-06 23:22:00,19.0,17.0,30.36,West,271,2.0,4.0,93,0.00,,,0.00,,2013-01-07 05:22:00,
2013-01-06 23:33:00,19.0,17.0,30.35,WSW,254,1.0,3.0,92,0.00,,,0.00,,2013-01-07 05:33:00,
2013-01-06 23:42:00,19.0,17.0,30.35,WSW,254,1.0,3.0,92,0.00,,,0.00,,2013-01-07 05:42:00,
2013-01-06 23:53:00,19.0,17.0,30.35,WSW,254,2.0,4.0,93,0.00,,,0.00,,2013-01-07 05:53:00,